SV2MJJ Weather Reports


time (UTC)temp
F
wind
direction
speed
knots
gust
knots
rain 1hr
in
rain 24hr
in
rain mn
in
humidity
%
barometer
mb
20260507231751 61 219 0.9 5.2 0.00 0.00 0.00 80 1012.6
20260507231701 61 244 0.9 5.2 0.00 0.00 0.00 80 1012.6
20260507231034 61 234 1.7 6.1 0.00 0.00 0.00 80 1012.7
20260507230805 61 211 2.6 6.1 0.00 0.00 0.00 80 1012.6
20260507230630 61 214 2.6 6.1 0.00 0.00 0.00 80 1012.7
20260507230606 61 232 2.6 6.1 0.00 0.00 0.00 80 1012.7
20260507230406 61 237 2.6 6.1 0.00 0.00 0.00 80 1012.8
20260507230209 61 250 2.6 6.1 0.00 0.00 0.00 81 1012.7
20260507230130 61 242 2.6 6.1 0.00 0.00 0.00 81 1012.7
20260507230005 61 228 2.6 6.1 0.00 0.00 0.00 81 1012.7
20260507225805 61 236 2.6 6.1 0.00 0.00 0.00 81 1012.7
20260507225633 61 233 2.6 7.0 0.00 0.00 0.00 81 1012.8
20260507225605 61 228 3.5 7.0 0.00 0.00 0.00 81 1012.8
20260507225405 61 241 3.5 7.0 0.00 0.00 0.00 81 1012.8
20260507225206 60 250 3.5 7.0 0.00 0.00 0.00 81 1012.8
20260507225129 60 257 3.5 7.0 0.00 0.00 0.00 81 1012.8
20260507225005 60 225 3.5 7.0 0.00 0.00 0.00 81 1012.8
20260507224816 60 225 3.5 7.0 0.00 0.00 0.00 81 1012.8
20260507224727 60 210 3.5 6.1 0.00 0.00 0.00 81 1012.9
20260507224712 60 244 3.5 6.1 0.00 0.00 0.00 81 1012.8
20260507224207 60 243 3.5 6.1 0.00 0.00 0.00 81 1012.8
20260507224132 60 238 3.5 6.1 0.00 0.00 0.00 81 1012.8
20260507224013 60 232 3.5 7.8 0.00 0.00 0.00 81 1012.8
20260507223807 60 219 3.5 7.8 0.00 0.00 0.00 81 1012.8
20260507223631 60 222 3.5 7.8 0.00 0.00 0.00 81 1012.8
20260507223559 60 231 3.5 7.8 0.00 0.00 0.00 81 1012.8
20260507223401 60 231 4.3 7.8 0.00 0.00 0.00 81 1012.8
20260507223247 60 242 3.5 7.8 0.00 0.00 0.00 80 1012.9
20260507223224 60 190 3.5 7.8 0.00 0.00 0.00 80 1012.9
20260507223141 60 228 3.5 7.8 0.00 0.00 0.00 80 1012.8
20260507223045 60 221 3.5 7.8 0.00 0.00 0.00 80 1012.9
20260507222957 60 238 3.5 7.8 0.00 0.00 0.00 80 1013.0
20260507222636 60 224 2.6 7.8 0.00 0.00 0.00 80 1012.9
20260507222318 61 242 2.6 7.8 0.00 0.00 0.00 80 1012.9
20260507221920 61 233 2.6 7.0 0.00 0.00 0.00 80 1013.0
20260507221555 61 225 2.6 7.0 0.00 0.00 0.00 80 1013.0
20260507221352 61 209 2.6 7.0 0.00 0.00 0.00 80 1013.1
20260507221151 61 228 1.7 7.0 0.00 0.00 0.00 80 1013.0
20260507221134 61 239 1.7 7.0 0.00 0.00 0.00 80 1013.0
20260507221015 61 221 0.9 6.1 0.00 0.00 0.00 80 1013.1
20260507220845 61 230 0.9 4.3 0.00 0.00 0.00 80 1013.1
20260507220809 61 226 0.9 4.3 0.00 0.00 0.00 80 1013.1
20260507220744 61 239 0.9 4.3 0.00 0.00 0.00 80 1013.0
20260507220654 61 225 0.9 5.2 0.00 0.00 0.00 80 1013.1
20260507215946 61 248 1.7 6.1 0.00 0.00 0.00 80 1013.0
20260507215746 61 248 1.7 6.1 0.00 0.00 0.00 80 1013.1
20260507215710 61 248 1.7 6.1 0.00 0.00 0.00 80 1013.1
20260507215644 61 241 2.6 6.1 0.00 0.00 0.00 80 1013.2
20260507215214 61 244 1.7 6.1 0.00 0.00 0.00 80 1013.2
20260507215201 61 232 1.7 6.1 0.00 0.00 0.00 80 1013.2
20260507215112 61 251 1.7 6.1 0.00 0.00 0.00 80 1013.2
20260507214733 61 267 2.6 6.1 0.00 0.00 0.00 80 1013.3
20260507214706 61 263 1.7 6.1 0.00 0.00 0.00 80 1013.2
20260507214608 61 214 1.7 6.1 0.00 0.00 0.00 80 1013.1
20260507214519 61 240 1.7 6.1 0.00 0.00 0.00 80 1013.1
20260507213742 61 243 1.7 6.1 0.00 0.00 0.00 80 1013.0
20260507213632 61 240 1.7 6.1 0.00 0.00 0.00 80 1013.0
20260507213541 61 244 1.7 6.1 0.00 0.00 0.00 80 1013.0
20260507213341 61 225 1.7 6.1 0.00 0.00 0.00 80 1013.0
20260507213132 61 242 1.7 6.1 0.00 0.00 0.00 80 1013.0
20260507212941 61 241 2.6 6.1 0.00 0.00 0.00 80 1012.9
20260507212740 61 225 2.6 6.1 0.00 0.00 0.00 80 1013.0
20260507212634 61 227 2.6 6.1 0.00 0.00 0.00 80 1012.9
20260507212552 61 244 2.6 6.1 0.00 0.00 0.00 80 1012.9
20260507212338 61 238 2.6 7.0 0.00 0.00 0.00 80 1012.9
20260507212142 61 225 2.6 7.0 0.00 0.00 0.00 80 1012.9
20260507212132 61 247 2.6 7.0 0.00 0.00 0.00 80 1012.9
20260507211938 61 225 2.6 7.0 0.00 0.00 0.00 80 1012.9
20260507211737 61 219 2.6 7.0 0.00 0.00 0.00 80 1013.0
20260507211629 61 261 3.5 7.0 0.00 0.00 0.00 80 1012.9
20260507211540 61 214 2.6 7.0 0.00 0.00 0.00 80 1012.9
20260507211337 61 230 2.6 7.0 0.00 0.00 0.00 80 1012.9
20260507211149 61 249 2.6 6.1 0.00 0.00 0.00 80 1013.0
20260507211138 62 228 2.6 6.1 0.00 0.00 0.00 80 1013.0
20260507211045 62 232 2.6 6.1 0.00 0.00 0.00 80 1012.9
20260507210941 62 236 2.6 6.1 0.00 0.00 0.00 80 1013.0
20260507210540 62 206 2.6 6.1 0.00 0.00 0.00 80 1012.9
20260507210444 62 230 3.5 7.0 0.00 0.00 0.00 80 1013.0
20260507210129 62 234 3.5 7.0 0.00 0.00 0.00 80 1013.0
20260507205937 62 213 4.3 7.0 0.00 0.00 0.00 80 1013.0
20260507205742 62 234 4.3 7.0 0.00 0.00 0.00 80 1013.0
20260507205709 62 212 4.3 7.8 0.00 0.00 0.00 80 1013.0
20260507205640 62 232 4.3 7.8 0.00 0.00 0.00 80 1013.0
20260507205135 62 234 3.5 7.8 0.00 0.00 0.00 80 1013.0
20260507205009 62 238 3.5 7.8 0.00 0.00 0.00 80 1013.0
20260507204909 62 232 3.5 7.8 0.00 0.00 0.00 80 1013.0
20260507204537 62 234 3.5 6.1 0.00 0.00 0.00 80 1013.1
20260507204335 62 199 3.5 6.1 0.00 0.00 0.00 80 1013.0
20260507204136 62 239 3.5 6.1 0.00 0.00 0.00 80 1013.1
20260507203936 62 243 3.5 6.1 0.00 0.00 0.00 80 1013.0
20260507203825 62 219 3.5 7.0 0.00 0.00 0.00 80 1013.0
20260507203753 62 209 3.5 7.0 0.00 0.00 0.00 80 1013.1
20260507203652 62 230 2.6 7.0 0.00 0.00 0.00 80 1013.0
20260507203254 62 223 2.6 7.0 0.00 0.00 0.00 80 1013.0
20260507202844 62 209 1.7 6.1 0.00 0.00 0.00 80 1013.1
20260507202818 62 219 1.7 6.1 0.00 0.00 0.00 80 1013.1
20260507202342 62 226 0.9 4.3 0.00 0.00 0.00 80 1013.1
20260507202242 62 262 0.9 4.3 0.00 0.00 0.00 80 1013.1
20260507201735 62 215 1.7 6.1 0.00 0.00 0.00 80 1013.1
20260507201630 62 213 1.7 6.1 0.00 0.00 0.00 80 1013.1
20260507201540 62 213 2.6 6.1 0.00 0.00 0.00 80 1013.1
20260507201411 62 226 2.6 6.1 0.00 0.00 0.00 80 1013.0
20260507201316 62 230 2.6 6.1 0.00 0.00 0.00 80 1013.1
20260507200906 62 223 2.6 7.0 0.00 0.00 0.00 81 1013.0
20260507200836 62 231 3.5 7.0 0.00 0.00 0.00 81 1013.0
20260507200810 62 232 3.5 7.0 0.00 0.00 0.00 81 1013.0
20260507200720 62 230 3.5 7.0 0.00 0.00 0.00 81 1013.1
20260507195936 62 225 3.5 7.0 0.00 0.00 0.00 81 1013.0
20260507195735 62 228 4.3 7.0 0.00 0.00 0.00 81 1013.1
20260507195629 62 220 4.3 7.0 0.00 0.00 0.00 81 1013.0
20260507195544 62 207 3.5 7.0 0.00 0.00 0.00 81 1013.0
20260507195445 62 207 3.5 7.0 0.00 0.00 0.00 81 1013.1
20260507195348 62 223 3.5 7.0 0.00 0.00 0.00 81 1013.1
20260507194935 62 223 3.5 7.0 0.00 0.00 0.00 81 1013.0
20260507194751 62 205 3.5 6.1 0.00 0.00 0.00 81 1013.0
20260507194723 62 246 3.5 6.1 0.00 0.00 0.00 81 1013.0
20260507194656 62 226 3.5 6.1 0.00 0.00 0.00 81 1013.0
20260507194136 62 230 3.5 7.0 0.00 0.00 0.00 81 1012.9
20260507193955 62 208 3.5 7.0 0.00 0.00 0.00 81 1013.0
20260507193859 62 229 3.5 7.0 0.00 0.00 0.00 81 1012.9
20260507193832 62 215 4.3 7.0 0.00 0.00 0.00 81 1012.9
20260507193414 62 219 4.3 7.0 0.00 0.00 0.00 81 1012.9
20260507193317 62 208 4.3 7.0 0.00 0.00 0.00 81 1012.9
20260507192908 62 233 3.5 7.0 0.00 0.00 0.00 81 1012.9
20260507192534 62 211 3.5 7.0 0.00 0.00 0.00 81 1012.9
20260507192342 62 217 2.6 7.0 0.00 0.00 0.00 81 1012.9
20260507192242 63 234 2.6 7.0 0.00 0.00 0.00 81 1012.9
20260507191735 63 225 3.5 7.0 0.00 0.00 0.00 81 1012.9
20260507191634 63 184 2.6 7.0 0.00 0.00 0.00 81 1012.9
20260507191536 63 221 3.5 7.0 0.00 0.00 0.00 81 1012.8
20260507191334 63 232 3.5 7.0 0.00 0.00 0.00 81 1012.8
20260507191136 63 244 3.5 7.0 0.00 0.00 0.00 81 1012.9
20260507191123 63 223 3.5 7.0 0.00 0.00 0.00 81 1012.9
20260507190935 63 211 3.5 6.1 0.00 0.00 0.00 81 1012.9
20260507190734 63 225 3.5 7.8 0.00 0.00 0.00 81 1012.9
20260507190617 63 227 3.5 7.8 0.00 0.00 0.00 81 1012.9
20260507190537 63 243 3.5 7.8 0.00 0.00 0.00 81 1012.9
20260507190334 63 206 3.5 7.8 0.00 0.00 0.00 81 1012.8
20260507190156 63 209 3.5 7.8 0.00 0.00 0.00 81 1012.8
20260507190139 63 229 3.5 7.8 0.00 0.00 0.00 81 1012.8
20260507190052 63 232 3.5 7.8 0.00 0.00 0.00 81 1012.7
20260507185954 63 234 2.6 7.0 0.00 0.00 0.00 81 1012.7
20260507185915 63 222 2.6 7.0 0.00 0.00 0.00 81 1012.7
20260507185246 63 201 2.6 6.1 0.00 0.00 0.00 81 1012.7
20260507185229 63 219 2.6 6.1 0.00 0.00 0.00 81 1012.7
20260507184734 63 209 3.5 6.1 0.00 0.00 0.00 81 1012.7
20260507184608 63 235 3.5 6.1 0.00 0.00 0.00 81 1012.7
20260507184534 63 235 3.5 6.1 0.00 0.00 0.00 81 1012.7
20260507184339 63 228 2.6 6.1 0.00 0.00 0.00 81 1012.7
20260507184247 64 217 2.6 6.1 0.00 0.00 0.00 81 1012.6
20260507184228 64 227 2.6 6.1 0.00 0.00 0.00 81 1012.7
20260507183735 64 233 1.7 5.2 0.00 0.00 0.00 81 1012.7
20260507183606 64 230 2.6 5.2 0.00 0.00 0.00 81 1012.7
20260507183538 64 229 2.6 5.2 0.00 0.00 0.00 81 1012.7
20260507183337 64 225 2.6 5.2 0.00 0.00 0.00 81 1012.7
20260507183135 64 229 2.6 5.2 0.00 0.00 0.00 81 1012.7
20260507183107 64 230 2.6 5.2 0.00 0.00 0.00 81 1012.7
20260507182935 64 242 2.6 5.2 0.00 0.00 0.00 81 1012.7
20260507182734 64 227 2.6 5.2 0.00 0.00 0.00 81 1012.6
20260507182603 64 236 2.6 5.2 0.00 0.00 0.00 81 1012.6
20260507182535 64 223 2.6 5.2 0.00 0.00 0.00 81 1012.6
20260507182334 64 238 2.6 5.2 0.00 0.00 0.00 81 1012.6
20260507182135 64 217 2.6 5.2 0.00 0.00 0.00 81 1012.7
20260507182103 64 236 2.6 5.2 0.00 0.00 0.00 80 1012.7
20260507181937 64 236 2.6 5.2 0.00 0.00 0.00 80 1012.6
20260507181737 64 226 2.6 5.2 0.00 0.00 0.00 80 1012.5
20260507181612 65 219 1.7 5.2 0.00 0.00 0.00 80 1012.6
20260507181548 65 212 1.7 5.2 0.00 0.00 0.00 80 1012.6
20260507181335 65 215 1.7 4.3 0.00 0.00 0.00 80 1012.5
20260507181135 65 209 0.9 4.3 0.00 0.00 0.00 80 1012.5
20260507181104 65 212 0.9 4.3 0.00 0.00 0.00 80 1012.5
20260507180935 65 225 0.9 3.5 0.00 0.00 0.00 80 1012.6
20260507180734 65 207 0.0 3.5 0.00 0.00 0.00 80 1012.6
20260507180604 65 207 0.0 3.5 0.00 0.00 0.00 80 1012.5
20260507180535 65 206 0.0 3.5 0.00 0.00 0.00 80 1012.5
20260507180335 65 205 0.9 4.3 0.00 0.00 0.00 80 1012.6
20260507180229 65 205 0.9 4.3 0.00 0.00 0.00 79 1012.6
20260507175734 65 205 0.9 4.3 0.00 0.00 0.00 79 1012.4
20260507175603 65 205 0.9 4.3 0.00 0.00 0.00 79 1012.5
20260507175536 65 205 0.9 4.3 0.00 0.00 0.00 79 1012.5
20260507175335 66 230 0.0 2.6 0.00 0.00 0.00 79 1012.5
20260507175136 66 230 0.0 2.6 0.00 0.00 0.00 79 1012.5
20260507175102 66 230 0.0 0.0 0.00 0.00 0.00 78 1012.5
20260507174951 66 230 0.0 0.0 0.00 0.00 0.00 78 1012.5
20260507174850 66 230 0.0 0.0 0.00 0.00 0.00 78 1012.5
20260507174536 66 230 0.0 0.0 0.00 0.00 0.00 78 1012.4
20260507174335 66 230 0.0 0.0 0.00 0.00 0.00 78 1012.4
20260507174123 66 230 0.0 0.0 0.00 0.00 0.00 78 1012.4
20260507174045 66 230 0.0 0.0 0.00 0.00 0.00 78 1012.4
20260507173605 66 286 0.0 0.0 0.00 0.00 0.00 78 1012.4
20260507173544 66 286 0.0 0.0 0.00 0.00 0.00 77 1012.4
20260507173451 66 286 0.0 0.0 0.00 0.00 0.00 77 1012.4
20260507173401 66 286 0.0 0.0 0.00 0.00 0.00 77 1012.3
20260507172935 66 286 0.0 0.0 0.00 0.00 0.00 77 1012.4
20260507172734 66 286 0.0 0.0 0.00 0.00 0.00 77 1012.4
20260507172602 66 286 0.0 0.0 0.00 0.00 0.00 77 1012.4
20260507172537 66 286 0.0 0.0 0.00 0.00 0.00 77 1012.4
20260507172334 66 286 0.0 0.0 0.00 0.00 0.00 77 1012.5
20260507172137 67 286 0.0 0.0 0.00 0.00 0.00 76 1012.5
20260507172102 67 286 0.0 0.0 0.00 0.00 0.00 76 1012.5
20260507171935 67 286 0.0 0.0 0.00 0.00 0.00 76 1012.4
20260507171819 67 286 0.0 0.0 0.00 0.00 0.00 76 1012.4
20260507171741 67 286 0.0 0.0 0.00 0.00 0.00 76 1012.4
20260507171724 67 286 0.0 0.0 0.00 0.00 0.00 76 1012.4
20260507171333 67 286 0.0 0.0 0.00 0.00 0.00 76 1012.4
20260507170936 67 286 0.0 0.0 0.00 0.00 0.00 76 1012.4
20260507170736 67 286 0.0 0.0 0.00 0.00 0.00 75 1012.4
20260507170602 67 286 0.0 0.0 0.00 0.00 0.00 75 1012.4
20260507170536 67 286 0.0 0.0 0.00 0.00 0.00 75 1012.4
20260507170335 67 286 0.0 0.0 0.00 0.00 0.00 74 1012.5
20260507170123 67 286 0.0 0.0 0.00 0.00 0.00 74 1012.4
20260507170046 67 286 0.0 0.0 0.00 0.00 0.00 74 1012.5
20260507165602 67 286 0.0 0.0 0.00 0.00 0.00 74 1012.5
20260507165536 67 286 0.0 0.0 0.00 0.00 0.00 75 1012.5
20260507165425 67 286 0.0 0.0 0.00 0.00 0.00 74 1012.5
20260507165329 67 286 0.0 0.0 0.00 0.00 0.00 74 1012.5
20260507164954 67 286 0.0 0.0 0.00 0.00 0.00 74 1012.6
20260507164851 67 286 0.0 0.0 0.00 0.00 0.00 74 1012.6
20260507164541 67 286 0.0 0.0 0.00 0.00 0.00 74 1012.7
20260507164442 67 286 0.0 0.0 0.00 0.00 0.00 73 1012.7
20260507164355 67 309 0.0 0.0 0.00 0.00 0.00 73 1012.7
20260507164048 67 327 0.0 0.0 0.00 0.00 0.00 74 1012.5
20260507163603 67 327 0.0 0.0 0.00 0.00 0.00 74 1012.6
20260507163535 67 327 0.0 0.0 0.00 0.00 0.00 74 1012.6
20260507163333 67 327 0.0 0.0 0.00 0.00 0.00 73 1012.5
20260507163133 67 327 0.0 1.7 0.00 0.00 0.00 73 1012.5
20260507163100 67 327 0.0 1.7 0.00 0.00 0.00 73 1012.6
20260507162932 67 321 0.0 1.7 0.00 0.00 0.00 73 1012.6
20260507162735 67 321 0.0 1.7 0.00 0.00 0.00 73 1012.7
20260507162652 67 304 0.0 1.7 0.00 0.00 0.00 73 1012.7
20260507162634 67 311 0.0 1.7 0.00 0.00 0.00 72 1012.7
20260507162532 68 311 0.0 1.7 0.00 0.00 0.00 72 1012.7
20260507162217 68 30 0.0 0.0 0.00 0.00 0.00 72 1012.6
20260507161724 68 31 0.0 0.9 0.00 0.00 0.00 72 1012.5
20260507161603 68 30 0.0 0.9 0.00 0.00 0.00 72 1012.5
20260507161523 68 30 0.0 0.9 0.00 0.00 0.00 72 1012.5
20260507161323 68 30 0.0 0.9 0.00 0.00 0.00 72 1012.5
20260507161126 68 30 0.0 0.9 0.00 0.00 0.00 72 1012.5
20260507161101 68 30 0.0 0.9 0.00 0.00 0.00 71 1012.5
20260507160948 68 93 0.0 0.0 0.00 0.00 0.00 72 1012.5
20260507160846 68 94 0.0 0.0 0.00 0.00 0.00 71 1012.5
20260507160524 68 95 0.0 0.0 0.00 0.00 0.00 71 1012.5
20260507160324 68 94 0.0 0.0 0.00 0.00 0.00 71 1012.6
20260507160120 68 95 0.0 0.0 0.00 0.00 0.00 71 1012.6
20260507155918 68 95 0.0 0.0 0.00 0.00 0.00 71 1012.7
20260507155717 69 95 0.0 0.0 0.00 0.00 0.00 72 1012.7
20260507155602 69 95 0.0 0.0 0.00 0.00 0.00 72 1012.6
20260507155513 69 95 0.0 0.0 0.00 0.00 0.00 72 1012.6
20260507155419 69 95 0.0 0.0 0.00 0.00 0.00 72 1012.5
20260507155101 69 95 0.0 0.0 0.00 0.00 0.00 72 1012.6
20260507154914 69 95 0.0 0.0 0.00 0.00 0.00 72 1012.7
20260507154715 69 95 0.0 0.0 0.00 0.00 0.00 72 1012.8
20260507154604 69 95 0.0 0.0 0.00 0.00 0.00 72 1012.8
20260507154514 69 95 0.0 0.0 0.00 0.00 0.00 71 1012.8
20260507154314 69 95 0.0 0.0 0.00 0.00 0.00 71 1012.9
20260507154100 69 95 0.0 0.0 0.00 0.00 0.00 71 1012.8
20260507153912 69 95 0.0 0.0 0.00 0.00 0.00 71 1012.8
20260507153712 69 95 0.0 0.0 0.00 0.00 0.00 70 1012.8
20260507153602 69 95 0.0 0.0 0.00 0.00 0.00 70 1012.7
20260507153514 69 96 0.0 0.0 0.00 0.00 0.00 70 1012.7
20260507153314 69 95 0.0 0.0 0.00 0.00 0.00 70 1012.7
20260507153200 69 95 0.0 0.0 0.00 0.00 0.00 70 1012.7
20260507153150 69 96 0.0 0.0 0.00 0.00 0.00 70 1012.8
20260507153033 69 95 0.0 0.0 0.00 0.00 0.00 70 1012.8
20260507152604 69 96 0.0 0.0 0.00 0.00 0.00 70 1012.9
20260507152517 69 96 0.0 0.0 0.00 0.00 0.00 70 1013.0
20260507152427 69 96 0.0 0.0 0.00 0.00 0.00 70 1013.0
20260507152316 69 96 0.0 0.0 0.00 0.00 0.00 69 1012.8
20260507151602 69 96 0.0 0.0 0.00 0.00 0.00 68 1012.9
20260507151508 69 95 0.0 0.9 0.00 0.00 0.00 68 1012.9
20260507151415 69 96 0.0 0.9 0.00 0.00 0.00 68 1013.1
20260507151105 69 96 0.0 0.9 0.00 0.00 0.00 68 1013.1
20260507150908 69 96 0.0 2.6 0.00 0.00 0.00 68 1013.0
20260507150707 69 96 0.0 2.6 0.00 0.00 0.00 68 1013.1
20260507150601 69 95 0.0 3.5 0.00 0.00 0.00 68 1013.1
20260507150507 69 96 0.0 3.5 0.00 0.00 0.00 68 1013.0
20260507150306 69 96 0.0 3.5 0.00 0.00 0.00 68 1013.1
20260507150113 69 96 0.0 3.5 0.00 0.00 0.00 68 1013.1
20260507145909 69 96 0.0 3.5 0.00 0.00 0.00 68 1013.0
20260507145705 69 96 0.0 3.5 0.00 0.00 0.00 68 1013.0
20260507145601 69 95 0.0 0.0 0.00 0.00 0.00 68 1013.0
20260507145507 69 95 0.0 0.0 0.00 0.00 0.00 68 1013.0
20260507145307 69 95 0.0 0.0 0.00 0.00 0.00 68 1012.9
20260507145105 69 95 0.0 0.0 0.00 0.00 0.00 67 1013.0
20260507144906 69 95 0.0 0.0 0.00 0.00 0.00 67 1013.1
20260507144707 69 95 0.0 0.0 0.00 0.00 0.00 68 1013.0
20260507144602 69 95 0.0 0.0 0.00 0.00 0.00 67 1012.9
20260507144508 69 95 0.0 0.0 0.00 0.00 0.00 68 1012.9
20260507144337 69 95 0.0 0.0 0.00 0.00 0.00 68 1012.9
20260507144234 69 95 0.0 0.0 0.00 0.00 0.00 68 1013.0
20260507144146 69 95 0.0 0.0 0.00 0.00 0.00 68 1013.0
20260507143506 69 95 0.0 0.0 0.00 0.00 0.00 68 1013.2
20260507143309 69 95 0.0 0.0 0.00 0.00 0.00 68 1013.2
20260507143105 69 95 0.0 0.0 0.00 0.00 0.00 69 1013.2
20260507142909 69 95 0.0 0.0 0.00 0.00 0.00 69 1013.3
20260507142705 69 95 0.9 3.5 0.00 0.00 0.00 69 1013.3
20260507142601 68 95 0.9 4.3 0.00 0.00 0.00 69 1013.2
20260507142512 68 95 1.7 4.3 0.00 0.00 0.00 69 1013.3
20260507142423 68 138 1.7 5.2 0.00 0.00 0.00 69 1013.1
20260507142109 68 138 1.7 5.2 0.00 0.00 0.00 69 1013.1
20260507142014 68 138 1.7 5.2 0.00 0.00 0.00 68 1013.1
20260507141601 69 138 0.9 5.2 0.00 0.00 0.00 67 1013.1
20260507141507 69 130 0.0 5.2 0.00 0.00 0.00 68 1013.0
20260507141312 69 101 0.0 2.6 0.00 0.00 0.00 68 1013.0
20260507141209 69 82 0.0 0.0 0.00 0.00 0.00 67 1013.0
20260507140708 69 82 0.0 4.3 0.00 0.00 0.00 67 1013.1
20260507140601 69 82 0.0 4.3 0.00 0.00 0.00 67 1013.1
20260507140508 69 82 0.0 4.3 0.00 0.00 0.00 67 1013.1
20260507140416 69 82 0.0 4.3 0.00 0.00 0.00 66 1013.1
20260507140106 69 112 0.0 4.3 0.00 0.00 0.00 66 1013.2
20260507135907 70 131 0.0 0.0 0.00 0.00 0.00 66 1013.2
20260507135705 70 107 0.0 0.0 0.00 0.00 0.00 65 1013.2
20260507135631 70 107 0.0 0.0 0.00 0.00 0.00 66 1013.2
20260507135604 70 107 0.0 0.0 0.00 0.00 0.00 66 1013.2
20260507135106 70 107 0.0 0.0 0.00 0.00 0.00 66 1013.1
20260507134909 70 107 0.0 0.0 0.00 0.00 0.00 66 1013.2
20260507134706 70 107 0.0 0.0 0.00 0.00 0.00 65 1013.1
20260507134603 70 107 0.0 0.0 0.00 0.00 0.00 65 1013.1
20260507134510 70 107 0.0 0.0 0.00 0.00 0.00 65 1013.1
20260507134421 70 107 0.0 0.0 0.00 0.00 0.00 65 1013.2
20260507134106 70 107 0.0 0.0 0.00 0.00 0.00 66 1013.2
20260507133908 70 107 0.0 1.7 0.00 0.00 0.00 65 1013.1
20260507133708 69 81 0.0 3.5 0.00 0.00 0.00 66 1013.1
20260507133603 69 81 0.0 3.5 0.00 0.00 0.00 66 1013.1
20260507133505 69 81 0.0 3.5 0.00 0.00 0.00 66 1013.0
20260507133307 69 84 0.0 3.5 0.00 0.00 0.00 66 1013.1
20260507133106 69 84 0.0 3.5 0.00 0.00 0.00 66 1013.1
20260507132906 69 110 0.0 3.5 0.00 0.00 0.00 66 1013.1
20260507132710 69 101 0.0 2.6 0.00 0.00 0.00 66 1013.2
20260507132603 69 101 0.0 4.3 0.00 0.00 0.00 66 1013.3
20260507132507 69 101 0.0 4.3 0.00 0.00 0.00 66 1013.3
20260507132415 69 101 0.9 4.3 0.00 0.00 0.00 66 1013.2
20260507132104 69 111 0.9 4.3 0.00 0.00 0.00 66 1013.3
20260507131909 69 148 1.7 6.1 0.00 0.00 0.00 66 1013.2
20260507131814 69 138 0.9 6.1 0.00 0.00 0.00 65 1013.2
20260507131744 69 128 0.9 6.1 0.00 0.00 0.00 65 1013.1
20260507131409 70 136 0.9 6.1 0.00 0.00 0.00 65 1013.2
20260507131319 70 149 0.0 6.1 0.00 0.00 0.00 65 1013.2
20260507130901 70 131 0.0 2.6 0.00 0.00 0.00 66 1013.2
20260507130701 70 68 0.0 1.7 0.00 0.00 0.00 67 1013.2
20260507130602 70 57 0.0 1.7 0.00 0.00 0.00 68 1013.2
20260507130500 69 107 0.0 1.7 0.00 0.00 0.00 68 1013.2
20260507130302 69 92 0.0 5.2 0.00 0.00 0.00 68 1013.3
20260507130112 69 45 0.0 5.2 0.00 0.00 0.00 69 1013.2
20260507125859 69 167 0.9 5.2 0.00 0.00 0.00 69 1013.3
20260507125711 68 94 0.9 5.2 0.00 0.00 0.00 70 1013.3
20260507125644 68 74 0.9 5.2 0.00 0.00 0.00 71 1013.3
20260507125609 68 116 0.9 5.2 0.00 0.00 0.00 71 1013.3
20260507125521 68 116 1.7 6.1 0.00 0.00 0.00 71 1013.2
20260507125214 68 120 1.7 6.1 0.00 0.00 0.00 71 1013.2
20260507124649 68 140 1.7 6.1 0.00 0.00 0.00 71 1013.4
20260507124600 68 124 0.9 6.1 0.00 0.00 0.00 71 1013.4
20260507124445 68 117 0.9 6.1 0.00 0.00 0.00 71 1013.4
20260507124246 68 126 0.0 6.1 0.00 0.00 0.00 72 1013.4
20260507124103 68 118 0.9 5.2 0.00 0.00 0.00 72 1013.4
20260507124047 68 124 0.9 5.2 0.00 0.00 0.00 72 1013.4
20260507123847 67 76 0.9 7.0 0.00 0.00 0.00 72 1013.4
20260507123647 67 67 0.9 7.0 0.00 0.00 0.00 72 1013.4
20260507123602 67 60 0.9 7.0 0.00 0.00 0.00 72 1013.4
20260507123449 67 60 0.9 7.0 0.00 0.00 0.00 72 1013.5
20260507123357 67 115 0.9 7.0 0.00 0.00 0.00 71 1013.5
20260507123043 68 126 0.0 7.0 0.00 0.00 0.00 71 1013.6
20260507122909 67 69 0.0 3.5 0.00 0.00 0.00 71 1013.7
20260507122646 68 102 0.0 3.5 0.00 0.00 0.00 71 1013.7
20260507122601 68 136 0.0 3.5 0.00 0.00 0.00 71 1013.7
20260507122437 68 44 0.0 3.5 0.00 0.00 0.00 70 1013.7
20260507122238 67 123 0.0 3.5 0.00 0.00 0.00 71 1013.8
20260507122105 68 126 0.0 3.5 0.00 0.00 0.00 72 1013.7
20260507122038 68 124 0.0 3.5 0.00 0.00 0.00 73 1013.7
20260507121838 67 105 0.0 0.0 0.00 0.00 0.00 73 1013.8
20260507121640 67 105 0.0 0.0 0.00 0.00 0.00 74 1013.9
20260507121602 67 105 0.0 0.0 0.00 0.00 0.00 74 1013.9
20260507121434 67 105 0.0 0.0 0.00 0.00 0.00 74 1013.9
20260507121236 67 109 0.0 0.0 0.00 0.00 0.00 75 1013.9
20260507121102 67 109 0.0 0.0 0.00 0.00 0.00 75 1014.0
20260507121036 67 109 0.0 0.0 0.00 0.00 0.00 75 1014.0
20260507120853 67 109 0.0 0.0 0.00 0.00 0.00 75 1014.1
20260507120803 67 46 0.0 0.0 0.00 0.00 0.00 76 1014.0
20260507120739 66 46 0.0 0.0 0.00 0.00 0.00 75 1014.1
20260507120400 66 46 0.0 0.0 0.00 0.00 0.00 76 1014.1
20260507120315 66 45 0.0 0.0 0.00 0.00 0.00 76 1014.1
20260507115853 66 46 0.0 0.0 0.00 0.00 0.00 76 1014.1
20260507115637 66 46 0.9 6.1 0.00 0.00 0.00 76 1014.1
20260507115601 66 46 0.9 7.0 0.00 0.00 0.00 76 1014.0
20260507115434 66 46 0.9 7.0 0.00 0.00 0.00 76 1014.0
20260507115234 66 46 0.9 7.0 0.00 0.00 0.00 76 1013.9
20260507115121 66 46 0.9 7.0 0.00 0.00 0.00 76 1013.8
20260507115102 66 46 0.9 7.0 0.00 0.00 0.00 76 1013.8
20260507115001 66 45 1.7 7.0 0.00 0.00 0.00 76 1013.8
20260507114906 66 155 1.7 7.8 0.00 0.00 0.00 76 1013.7
20260507114555 66 90 1.7 7.8 0.00 0.00 0.00 76 1013.5
20260507114504 66 116 1.7 7.8 0.00 0.00 0.00 76 1013.3
20260507114423 66 106 2.6 7.8 0.00 0.00 0.00 76 1013.4
20260507114056 66 134 2.6 7.8 0.00 0.00 0.00 76 1013.6
20260507114008 66 97 1.7 6.1 0.00 0.00 0.00 76 1014.0
20260507113657 66 146 1.7 6.1 0.00 0.00 0.00 75 1014.0
20260507113611 66 113 1.7 5.2 0.00 0.00 0.00 76 1014.1
20260507113534 66 119 0.9 5.2 0.00 0.00 0.00 75 1014.1
20260507113517 66 129 0.9 5.2 0.00 0.00 0.00 75 1014.1
20260507113417 66 123 0.9 5.2 0.00 0.00 0.00 74 1014.3
20260507112749 66 117 0.9 5.2 0.00 0.00 0.00 75 1014.4
20260507112139 67 109 0.0 0.9 0.00 0.00 0.00 76 1014.5
20260507112036 67 111 0.0 0.9 0.00 0.00 0.00 76 1014.5
20260507111948 67 132 0.0 0.0 0.00 0.00 0.00 77 1014.5
20260507111229 67 351 0.0 0.0 0.00 0.00 0.00 79 1014.5
20260507111102 67 351 0.0 0.0 0.00 0.00 0.00 79 1014.5
20260507111027 67 351 0.0 0.0 0.00 0.00 0.00 79 1014.5
20260507110917 66 351 0.0 0.0 0.00 0.00 0.00 79 1014.5
20260507110829 66 351 0.0 0.0 0.00 0.00 0.00 79 1014.4
20260507110427 66 351 0.0 0.0 0.00 0.00 0.00 79 1014.5
20260507110227 66 351 0.0 2.6 0.00 0.00 0.00 78 1014.6
20260507110110 66 351 0.0 3.5 0.00 0.00 0.00 78 1014.6
20260507110025 66 351 0.0 3.5 0.00 0.00 0.00 78 1014.6
20260507105836 66 351 0.0 3.5 0.00 0.00 0.00 78 1014.6
20260507105609 66 351 0.0 3.5 0.00 0.00 0.00 77 1014.6
20260507105419 66 351 0.0 3.5 0.00 0.00 0.00 76 1014.6
20260507105221 67 351 0.0 2.6 0.00 0.00 0.00 76 1014.6
20260507105141 67 351 0.0 0.0 0.00 0.00 0.00 76 1014.6
20260507105118 67 338 0.0 0.0 0.00 0.00 0.00 76 1014.6
20260507104602 67 1 0.0 0.0 0.00 0.00 0.00 76 1014.6
20260507104419 67 1 0.0 3.5 0.00 0.00 0.00 75 1014.6
20260507104324 67 1 0.0 3.5 0.00 0.00 0.00 74 1014.6
20260507104253 67 1 0.0 3.5 0.00 0.00 0.00 74 1014.7
20260507103813 67 5 0.0 3.5 0.00 0.00 0.00 72 1014.6
20260507103604 67 13 0.0 3.5 0.00 0.00 0.00 72 1014.4
20260507103411 67 18 0.0 3.5 0.00 0.00 0.00 72 1014.5
20260507103211 67 18 0.0 3.5 0.00 0.00 0.00 72 1014.4
20260507103102 67 18 0.0 3.5 0.00 0.00 0.00 72 1014.4
20260507103011 67 18 0.0 3.5 0.00 0.00 0.00 72 1014.4
20260507102813 67 18 0.0 3.5 0.00 0.00 0.00 72 1014.3
20260507102600 67 18 0.9 3.5 0.00 0.00 0.00 72 1014.4
20260507102410 67 18 0.0 3.5 0.00 0.00 0.00 72 1014.4
20260507102211 67 18 0.0 3.5 0.00 0.00 0.00 71 1014.5
20260507102102 67 18 0.0 3.5 0.00 0.00 0.00 70 1014.5
20260507102010 67 18 0.0 3.5 0.00 0.00 0.00 70 1014.6
20260507101812 67 22 0.0 3.5 0.00 0.00 0.00 70 1014.5
20260507101614 67 20 0.0 0.0 0.00 0.00 0.00 70 1014.6
20260507101602 68 20 0.0 0.0 0.00 0.00 0.00 70 1014.6
20260507101409 68 169 0.0 0.0 0.00 0.00 0.00 70 1014.5
20260507101319 68 169 0.0 0.0 0.00 0.00 0.00 70 1014.5
20260507101251 68 169 0.0 0.0 0.00 0.00 0.00 70 1014.5
20260507100914 68 169 0.0 0.0 0.00 0.00 0.00 69 1014.5
20260507100606 68 169 0.0 0.0 0.00 0.00 0.00 70 1014.4
20260507100417 68 169 0.0 0.0 0.00 0.00 0.00 69 1014.4
20260507100327 68 169 0.0 0.0 0.00 0.00 0.00 69 1014.4
20260507100300 68 169 0.0 0.0 0.00 0.00 0.00 69 1014.3
20260507095917 68 169 0.0 0.0 0.00 0.00 0.00 69 1014.2
20260507095822 68 169 0.0 0.0 0.00 0.00 0.00 69 1014.2
20260507095700 68 169 0.0 0.0 0.00 0.00 0.00 69 1014.2
20260507095335 68 169 0.0 0.0 0.00 0.00 0.00 69 1014.2
20260507095305 68 169 0.0 0.0 0.00 0.00 0.00 69 1014.2
20260507095214 68 169 0.0 0.0 0.00 0.00 0.00 68 1014.2
20260507095127 68 169 0.0 0.0 0.00 0.00 0.00 68 1014.2
20260507094522 68 169 0.0 0.0 0.00 0.00 0.00 67 1014.2
20260507093912 68 169 0.0 0.0 0.00 0.00 0.00 66 1014.2
20260507093606 68 169 0.0 0.0 0.00 0.00 0.00 65 1014.3
20260507093406 68 169 0.0 0.0 0.00 0.00 0.00 66 1014.2
20260507093206 68 169 0.0 0.0 0.00 0.00 0.00 66 1014.2
20260507093103 68 169 0.0 0.0 0.00 0.00 0.00 65 1014.3
20260507093014 68 169 0.0 0.0 0.00 0.00 0.00 65 1014.2
20260507092807 68 169 0.0 0.0 0.00 0.00 0.00 65 1014.2
20260507092606 68 169 0.0 0.0 0.00 0.00 0.00 65 1014.3
20260507092407 68 169 0.0 0.0 0.00 0.00 0.00 64 1014.3
20260507092206 68 169 0.0 0.0 0.00 0.00 0.00 63 1014.3
20260507092101 68 169 0.0 0.0 0.00 0.00 0.00 64 1014.3
20260507092009 68 169 0.0 0.0 0.00 0.00 0.00 65 1014.3
20260507091805 68 169 0.0 0.0 0.00 0.00 0.00 65 1014.2
20260507091606 68 169 0.0 0.0 0.00 0.00 0.00 65 1014.3
20260507091507 68 169 0.0 0.0 0.00 0.00 0.00 65 1014.2
20260507091101 68 169 0.0 0.0 0.00 0.00 0.00 64 1014.3
20260507091012 68 188 0.0 0.0 0.00 0.00 0.00 64 1014.3
20260507090914 68 188 0.0 0.0 0.00 0.00 0.00 63 1014.3
20260507090605 68 296 0.0 0.0 0.00 0.00 0.00 62 1014.3
20260507090406 68 296 0.0 0.0 0.00 0.00 0.00 59 1014.2
20260507090206 68 296 0.0 0.0 0.00 0.00 0.00 59 1014.3
20260507090101 68 296 0.0 0.0 0.00 0.00 0.00 58 1014.2
20260507090009 68 296 0.0 0.0 0.00 0.00 0.00 59 1014.2
20260507085911 69 296 0.0 0.0 0.00 0.00 0.00 58 1014.2
20260507085818 69 296 0.0 0.0 0.00 0.00 0.00 59 1014.1
20260507085437 69 296 0.0 0.0 0.00 0.00 0.00 59 1014.0
20260507085316 69 296 0.0 0.0 0.00 0.00 0.00 58 1014.0
20260507085246 69 296 0.0 0.0 0.00 0.00 0.00 57 1014.0
20260507084806 69 296 0.0 0.0 0.00 0.00 0.00 56 1014.0
20260507084655 69 296 0.0 0.0 0.00 0.00 0.00 55 1014.0
20260507084604 69 296 0.0 0.0 0.00 0.00 0.00 55 1014.0
20260507084240 69 296 0.0 0.0 0.00 0.00 0.00 57 1013.9
20260507084213 69 296 0.0 0.0 0.00 0.00 0.00 57 1013.8
20260507084123 69 76 0.0 0.0 0.00 0.00 0.00 57 1013.7
20260507083407 69 92 0.0 0.0 0.00 0.00 0.00 56 1013.5
20260507083207 69 92 0.0 0.0 0.00 0.00 0.00 57 1013.5
20260507083111 69 93 0.0 0.0 0.00 0.00 0.00 57 1013.5
20260507083039 69 92 0.0 0.0 0.00 0.00 0.00 57 1013.5
20260507082945 69 92 0.0 0.0 0.00 0.00 0.00 57 1013.5
20260507082637 69 93 0.0 0.0 0.00 0.00 0.00 58 1013.4
20260507082545 69 93 0.0 0.0 0.00 0.00 0.00 58 1013.4
20260507082450 69 93 0.0 0.0 0.00 0.00 0.00 57 1013.3
20260507082419 69 93 0.0 0.0 0.00 0.00 0.00 58 1013.3
20260507081611 69 93 0.0 0.0 0.00 0.00 0.00 59 1013.2
20260507081459 69 93 0.0 0.0 0.00 0.00 0.00 60 1013.1
20260507081412 69 93 0.0 0.0 0.00 0.00 0.00 60 1013.1
20260507081342 69 93 0.0 0.0 0.00 0.00 0.00 61 1013.1
20260507081319 69 93 0.0 0.0 0.00 0.00 0.00 61 1013.1
20260507081221 69 93 0.0 0.0 0.00 0.00 0.00 61 1013.1
20260507080205 68 93 0.0 0.0 0.00 0.00 0.00 62 1013.0
20260507080008 68 93 0.0 0.0 0.00 0.00 0.00 62 1013.1
20260507075818 68 93 0.0 0.0 0.00 0.00 0.00 61 1013.0
20260507075717 68 93 0.0 0.0 0.00 0.00 0.00 61 1012.9
20260507075624 68 93 0.0 0.0 0.00 0.00 0.00 62 1013.0
20260507075251 68 92 0.0 0.0 0.00 0.00 0.00 63 1012.8
20260507075154 68 93 0.0 0.0 0.00 0.00 0.00 63 1012.9
20260507075058 68 93 0.0 0.0 0.00 0.00 0.00 65 1012.8
20260507075009 68 93 0.0 0.0 0.00 0.00 0.00 66 1012.8
20260507074708 68 93 0.0 0.0 0.00 0.00 0.00 66 1012.8
20260507074340 67 92 0.0 0.0 0.00 0.00 0.00 66 1012.7
20260507074314 67 92 0.0 0.0 0.00 0.00 0.00 66 1012.7
20260507073915 67 93 0.0 0.0 0.00 0.00 0.00 66 1012.7
20260507073524 67 93 0.0 0.0 0.00 0.00 0.00 68 1012.8
20260507072912 67 93 0.0 0.0 0.00 0.00 0.00 68 1012.7
20260507072818 67 93 0.0 0.0 0.00 0.00 0.00 68 1012.7
20260507072406 67 93 0.0 0.0 0.00 0.00 0.00 68 1012.6
20260507072207 67 93 0.0 0.0 0.00 0.00 0.00 68 1012.6
20260507072104 66 93 0.0 0.0 0.00 0.00 0.00 69 1012.6
20260507072006 66 93 0.0 0.0 0.00 0.00 0.00 69 1012.6
20260507071807 66 92 0.0 0.0 0.00 0.00 0.00 69 1012.7
20260507071606 66 92 0.0 0.0 0.00 0.00 0.00 69 1012.7
20260507071407 66 92 0.0 0.0 0.00 0.00 0.00 69 1012.7
20260507071207 66 92 0.0 0.0 0.00 0.00 0.00 69 1012.7
20260507071101 66 92 0.0 0.0 0.00 0.00 0.00 69 1012.7
20260507071007 66 92 0.0 0.0 0.00 0.00 0.00 70 1012.7
20260507070815 66 92 0.0 0.0 0.00 0.00 0.00 70 1012.7
20260507070721 66 92 0.0 0.0 0.00 0.00 0.00 70 1012.6
20260507070619 66 140 0.0 0.0 0.00 0.00 0.00 70 1012.6
20260507070527 66 140 0.0 0.0 0.00 0.00 0.00 70 1012.7
20260507065909 65 255 0.0 0.0 0.00 0.00 0.00 70 1012.7
20260507065816 65 255 0.0 0.0 0.00 0.00 0.00 70 1012.6
20260507065507 65 255 0.0 0.0 0.00 0.00 0.00 70 1012.7
20260507065125 65 255 0.0 0.0 0.00 0.00 0.00 70 1012.7
20260507065007 65 255 0.0 0.0 0.00 0.00 0.00 70 1012.7
20260507064805 65 255 0.0 0.0 0.00 0.00 0.00 69 1012.7
20260507064606 65 257 0.0 0.0 0.00 0.00 0.00 70 1012.8
20260507064408 65 257 0.0 0.0 0.00 0.00 0.00 70 1012.7
20260507064206 65 257 0.0 0.0 0.00 0.00 0.00 70 1012.8
20260507064102 65 257 0.0 0.0 0.00 0.00 0.00 69 1012.7
20260507064007 65 257 0.0 0.0 0.00 0.00 0.00 69 1012.7
20260507063808 64 257 0.0 0.0 0.00 0.00 0.00 69 1012.7
20260507063605 64 257 0.0 0.0 0.00 0.00 0.00 70 1012.7
20260507063405 64 257 0.0 0.0 0.00 0.00 0.00 70 1012.7
20260507063207 64 257 0.0 0.0 0.00 0.00 0.00 69 1012.7
20260507063104 64 257 0.0 0.0 0.00 0.00 0.00 69 1012.8
20260507063007 64 257 0.0 0.0 0.00 0.00 0.00 69 1012.8
20260507062833 64 257 0.0 0.0 0.00 0.00 0.00 69 1012.8
20260507062732 65 257 0.0 0.0 0.00 0.00 0.00 68 1012.8
20260507062338 65 257 0.0 0.0 0.00 0.00 0.00 68 1012.7
20260507062306 65 257 0.0 0.0 0.00 0.00 0.00 69 1012.8
20260507062241 65 257 0.0 0.0 0.00 0.00 0.00 69 1012.7
20260507062153 65 257 0.0 0.0 0.00 0.00 0.00 68 1012.8
20260507061406 65 257 0.0 0.0 0.00 0.00 0.00 69 1012.7
20260507061205 65 257 0.0 0.0 0.00 0.00 0.00 69 1012.8
20260507061102 65 257 0.0 0.0 0.00 0.00 0.00 69 1012.8
20260507061009 65 257 0.0 0.0 0.00 0.00 0.00 68 1012.8
20260507060812 65 257 0.0 0.0 0.00 0.00 0.00 68 1012.8
20260507060708 65 257 0.0 0.0 0.00 0.00 0.00 68 1012.7
20260507060622 65 257 0.0 0.0 0.00 0.00 0.00 68 1012.7
20260507060528 65 257 0.0 0.0 0.00 0.00 0.00 69 1012.7
20260507060226 65 257 0.0 0.0 0.00 0.00 0.00 68 1012.7
20260507060138 65 257 0.0 0.0 0.00 0.00 0.00 68 1012.6
20260507055405 65 257 0.0 0.0 0.00 0.00 0.00 68 1012.6
20260507055206 65 257 0.0 0.0 0.00 0.00 0.00 68 1012.7
20260507055103 65 257 0.0 0.0 0.00 0.00 0.00 68 1012.7
20260507055008 65 257 0.0 0.0 0.00 0.00 0.00 68 1012.7
20260507054805 65 257 0.0 0.0 0.00 0.00 0.00 68 1012.7
20260507054605 65 257 0.0 0.0 0.00 0.00 0.00 67 1012.6
20260507054408 65 257 0.0 0.0 0.00 0.00 0.00 67 1012.6
20260507054206 64 257 0.0 0.0 0.00 0.00 0.00 67 1012.6
20260507054131 64 257 0.0 0.0 0.00 0.00 0.00 67 1012.6
20260507054107 64 257 0.0 0.0 0.00 0.00 0.00 66 1012.6
20260507054011 64 257 0.0 0.0 0.00 0.00 0.00 67 1012.6
20260507053705 64 257 0.0 0.0 0.00 0.00 0.00 67 1012.6
20260507053311 64 257 0.0 0.0 0.00 0.00 0.00 66 1012.6
20260507053244 64 257 0.0 0.0 0.00 0.00 0.00 66 1012.5
20260507052808 64 257 0.0 0.0 0.00 0.00 0.00 66 1012.5
20260507052629 64 257 0.0 0.0 0.00 0.00 0.00 66 1012.4
20260507052537 64 257 0.0 0.0 0.00 0.00 0.00 66 1012.4
20260507052443 64 257 0.0 0.0 0.00 0.00 0.00 66 1012.4
20260507052415 63 257 0.0 0.0 0.00 0.00 0.00 66 1012.4
20260507052350 63 257 0.0 0.0 0.00 0.00 0.00 66 1012.4
20260507052248 63 257 0.0 0.0 0.00 0.00 0.00 67 1012.4
20260507052200 63 257 0.0 0.0 0.00 0.00 0.00 67 1012.4
20260507051828 63 257 0.0 0.0 0.00 0.00 0.00 68 1012.3
20260507051456 62 257 0.0 0.0 0.00 0.00 0.00 68 1012.2
20260507051429 62 257 0.0 0.0 0.00 0.00 0.00 68 1012.3
20260507050405 62 257 0.0 0.0 0.00 0.00 0.00 69 1012.1
20260507050207 62 257 0.0 0.0 0.00 0.00 0.00 70 1012.2
20260507050104 62 257 0.0 0.0 0.00 0.00 0.00 70 1012.1
20260507050009 61 257 0.0 0.0 0.00 0.00 0.00 70 1012.1
20260507045808 61 257 0.0 0.0 0.00 0.00 0.00 71 1012.1
20260507045606 61 257 0.0 0.0 0.00 0.00 0.00 71 1012.1
20260507045408 61 257 0.0 0.0 0.00 0.00 0.00 71 1012.1
20260507045205 61 257 0.0 0.0 0.00 0.00 0.00 71 1012.1
20260507045103 61 257 0.0 0.0 0.00 0.00 0.00 71 1012.0
20260507045007 61 257 0.0 0.0 0.00 0.00 0.00 71 1012.1
20260507044805 60 257 0.0 0.0 0.00 0.00 0.00 71 1012.1
20260507044606 60 257 0.0 2.6 0.00 0.00 0.00 71 1012.1
20260507044414 60 257 0.9 3.5 0.00 0.00 0.00 71 1012.0
20260507044321 60 259 0.9 5.2 0.00 0.00 0.00 71 1012.0
20260507044251 60 259 0.9 5.2 0.00 0.00 0.00 71 1012.0
20260507044224 60 259 0.9 5.2 0.00 0.00 0.00 71 1011.9
20260507043819 60 260 0.0 5.2 0.00 0.00 0.00 72 1012.0
20260507043406 60 260 0.0 5.2 0.00 0.00 0.00 72 1012.0
20260507043317 60 260 0.0 1.7 0.00 0.00 0.00 72 1011.9
20260507043246 60 260 0.0 1.7 0.00 0.00 0.00 72 1011.9
20260507042807 60 260 0.0 0.0 0.00 0.00 0.00 72 1011.9
20260507042606 59 260 0.0 0.0 0.00 0.00 0.00 72 1011.9
20260507042407 59 260 0.0 0.0 0.00 0.00 0.00 72 1011.9
20260507042206 59 260 0.0 0.0 0.00 0.00 0.00 72 1012.0
20260507042101 59 260 0.0 0.0 0.00 0.00 0.00 72 1012.0
20260507042009 59 260 0.0 0.0 0.00 0.00 0.00 72 1011.9
20260507041807 59 260 0.0 3.5 0.00 0.00 0.00 72 1012.0
20260507041606 59 260 0.0 3.5 0.00 0.00 0.00 72 1011.9
20260507041407 59 261 0.0 3.5 0.00 0.00 0.00 72 1012.0
20260507041207 59 261 0.0 3.5 0.00 0.00 0.00 72 1012.0
20260507041102 59 261 0.0 3.5 0.00 0.00 0.00 72 1011.9
20260507041007 59 261 0.0 3.5 0.00 0.00 0.00 72 1011.9
20260507040807 59 261 0.0 2.6 0.00 0.00 0.00 72 1011.9
20260507040607 59 261 0.0 2.6 0.00 0.00 0.00 72 1011.9
20260507040408 59 261 0.0 2.6 0.00 0.00 0.00 72 1011.8
20260507040207 59 261 0.0 3.5 0.00 0.00 0.00 72 1011.8
20260507040124 59 261 0.0 3.5 0.00 0.00 0.00 72 1011.8
20260507040041 59 261 0.0 3.5 0.00 0.00 0.00 72 1011.8
20260507035948 59 261 0.9 3.5 0.00 0.00 0.00 72 1011.8
20260507035639 59 261 0.9 3.5 0.00 0.00 0.00 72 1011.7
20260507035550 59 261 0.9 3.5 0.00 0.00 0.00 72 1011.8
20260507035457 59 261 0.9 3.5 0.00 0.00 0.00 73 1011.8
20260507035423 59 261 0.9 3.5 0.00 0.00 0.00 73 1011.7
20260507035053 59 236 0.9 4.3 0.00 0.00 0.00 73 1011.7
20260507034954 59 223 0.9 4.3 0.00 0.00 0.00 73 1011.6
20260507034906 59 259 0.9 4.3 0.00 0.00 0.00 73 1011.6
20260507034504 59 259 1.7 5.2 0.00 0.00 0.00 73 1011.7
20260507033618 59 239 0.9 5.2 0.00 0.00 0.00 73 1011.7
20260507033509 59 274 0.9 5.2 0.00 0.00 0.00 73 1011.6
20260507033413 59 243 0.0 5.2 0.00 0.00 0.00 73 1011.6
20260507033344 59 262 0.0 3.5 0.00 0.00 0.00 73 1011.6
20260507032611 59 259 0.0 3.5 0.00 0.00 0.00 73 1011.5
20260507032554 59 259 0.0 3.5 0.00 0.00 0.00 73 1011.5
20260507032353 58 259 0.9 3.5 0.00 0.00 0.00 73 1011.5
20260507032216 58 238 0.9 3.5 0.00 0.00 0.00 73 1011.6
20260507032143 58 237 0.9 3.5 0.00 0.00 0.00 73 1011.6
20260507032055 58 236 0.9 3.5 0.00 0.00 0.00 73 1011.6
20260507031613 58 238 0.9 3.5 0.00 0.00 0.00 73 1011.6
20260507031552 58 234 0.9 3.5 0.00 0.00 0.00 73 1011.6
20260507031349 58 248 0.9 3.5 0.00 0.00 0.00 73 1011.5
20260507031151 58 260 0.9 5.2 0.00 0.00 0.00 73 1011.5
20260507031103 58 259 0.9 5.2 0.00 0.00 0.00 73 1011.5
20260507030949 58 259 0.9 5.2 0.00 0.00 0.00 73 1011.5
20260507030746 58 223 0.9 5.2 0.00 0.00 0.00 73 1011.6
20260507030601 58 263 1.7 5.2 0.00 0.00 0.00 73 1011.5
20260507030543 58 263 1.7 5.2 0.00 0.00 0.00 73 1011.5
20260507030343 58 255 1.7 5.2 0.00 0.00 0.00 73 1011.6
20260507030143 58 257 2.6 5.2 0.00 0.00 0.00 73 1011.5
20260507030101 58 252 2.6 5.2 0.00 0.00 0.00 73 1011.5
20260507025957 58 255 2.6 5.2 0.00 0.00 0.00 73 1011.5
20260507025856 58 246 2.6 5.2 0.00 0.00 0.00 73 1011.5
20260507025541 58 263 2.6 6.1 0.00 0.00 0.00 73 1011.5
20260507025341 58 266 2.6 6.1 0.00 0.00 0.00 73 1011.5
20260507025142 58 263 2.6 6.1 0.00 0.00 0.00 73 1011.4
20260507025101 58 256 2.6 6.1 0.00 0.00 0.00 73 1011.5
20260507024943 58 255 2.6 6.1 0.00 0.00 0.00 72 1011.4
20260507024814 59 262 2.6 6.1 0.00 0.00 0.00 72 1011.5
20260507024732 59 255 1.7 6.1 0.00 0.00 0.00 72 1011.4
20260507024712 59 260 1.7 6.1 0.00 0.00 0.00 72 1011.4
20260507024153 59 257 1.7 6.1 0.00 0.00 0.00 72 1011.4
20260507024133 59 258 1.7 6.1 0.00 0.00 0.00 72 1011.5
20260507024047 59 246 1.7 6.1 0.00 0.00 0.00 72 1011.4
20260507023605 59 253 0.9 4.3 0.00 0.00 0.00 72 1011.4
20260507023536 59 252 0.9 4.3 0.00 0.00 0.00 71 1011.4
20260507023335 59 244 0.9 4.3 0.00 0.00 0.00 71 1011.3
20260507023136 59 230 0.9 4.3 0.00 0.00 0.00 71 1011.3
20260507023103 59 230 0.9 4.3 0.00 0.00 0.00 71 1011.4
20260507022934 60 243 0.9 4.3 0.00 0.00 0.00 71 1011.4
20260507022737 60 244 0.9 3.5 0.00 0.00 0.00 71 1011.4
20260507022656 60 232 0.9 3.5 0.00 0.00 0.00 71 1011.3
20260507022632 60 232 0.9 3.5 0.00 0.00 0.00 71 1011.3
20260507022543 60 232 0.9 3.5 0.00 0.00 0.00 71 1011.3
20260507022439 60 232 0.9 3.5 0.00 0.00 0.00 71 1011.4
20260507022353 60 232 0.9 3.5 0.00 0.00 0.00 71 1011.4
20260507021335 60 235 0.0 2.6 0.00 0.00 0.00 71 1011.4
20260507021135 60 235 0.0 2.6 0.00 0.00 0.00 71 1011.4
20260507021103 60 235 0.0 2.6 0.00 0.00 0.00 71 1011.3
20260507020934 60 235 0.0 0.9 0.00 0.00 0.00 71 1011.4
20260507020734 60 235 0.0 0.9 0.00 0.00 0.00 71 1011.4
20260507020606 60 235 0.0 0.9 0.00 0.00 0.00 71 1011.4
20260507020535 60 235 0.0 0.9 0.00 0.00 0.00 71 1011.4
20260507020444 60 235 0.0 2.6 0.00 0.00 0.00 71 1011.3
20260507020353 60 235 0.0 2.6 0.00 0.00 0.00 72 1011.4
20260507020042 60 235 0.0 2.6 0.00 0.00 0.00 72 1011.4
20260507015601 59 235 0.0 2.6 0.00 0.00 0.00 72 1011.4
20260507015527 59 235 0.0 2.6 0.00 0.00 0.00 72 1011.4
20260507015328 59 235 0.9 4.3 0.00 0.00 0.00 72 1011.3
20260507015222 59 235 0.9 4.3 0.00 0.00 0.00 72 1011.3
20260507014720 59 235 0.9 4.3 0.00 0.00 0.00 72 1011.3
20260507014603 59 235 0.9 4.3 0.00 0.00 0.00 72 1011.3
20260507014525 59 235 0.9 4.3 0.00 0.00 0.00 72 1011.3
20260507014433 59 241 0.0 2.6 0.00 0.00 0.00 72 1011.3
20260507014109 59 242 0.0 2.6 0.00 0.00 0.00 72 1011.3
20260507014020 59 245 0.0 2.6 0.00 0.00 0.00 73 1011.3
20260507013602 59 283 0.0 0.0 0.00 0.00 0.00 73 1011.2
20260507013513 59 283 0.0 0.0 0.00 0.00 0.00 73 1011.2
20260507013416 59 283 0.0 0.0 0.00 0.00 0.00 72 1011.2
20260507013327 59 268 0.0 1.7 0.00 0.00 0.00 72 1011.2
20260507012916 59 267 0.0 1.7 0.00 0.00 0.00 72 1011.2
20260507012714 59 267 0.0 3.5 0.00 0.00 0.00 72 1011.3
20260507012603 59 265 0.0 3.5 0.00 0.00 0.00 72 1011.2
20260507012516 59 265 0.0 3.5 0.00 0.00 0.00 72 1011.2
20260507012416 59 265 0.9 3.5 0.00 0.00 0.00 72 1011.2
20260507012101 59 238 0.9 3.5 0.00 0.00 0.00 72 1011.2
20260507011938 59 237 0.9 3.5 0.00 0.00 0.00 72 1011.2
20260507011841 59 242 0.9 4.3 0.00 0.00 0.00 72 1011.3
20260507011508 59 242 0.9 4.3 0.00 0.00 0.00 72 1011.3
20260507011308 59 235 0.9 4.3 0.00 0.00 0.00 72 1011.3
20260507011111 59 235 0.0 4.3 0.00 0.00 0.00 72 1011.3
20260507011103 59 235 0.9 4.3 0.00 0.00 0.00 72 1011.3
20260507010910 59 239 0.9 4.3 0.00 0.00 0.00 72 1011.3
20260507010706 59 253 1.7 4.3 0.00 0.00 0.00 72 1011.2
20260507010603 59 253 1.7 6.1 0.00 0.00 0.00 72 1011.2
20260507010507 59 226 1.7 6.1 0.00 0.00 0.00 72 1011.3
20260507010412 59 225 1.7 6.1 0.00 0.00 0.00 72 1011.2
20260507010323 59 225 1.7 6.1 0.00 0.00 0.00 72 1011.2
20260507005907 59 239 0.9 6.1 0.00 0.00 0.00 72 1011.2
20260507005706 59 232 0.9 6.1 0.00 0.00 0.00 72 1011.2
20260507005601 59 212 0.9 3.5 0.00 0.00 0.00 72 1011.2
20260507005506 59 232 0.9 3.5 0.00 0.00 0.00 72 1011.2
20260507005307 60 240 0.0 3.5 0.00 0.00 0.00 72 1011.2
20260507005120 60 218 0.0 2.6 0.00 0.00 0.00 72 1011.3
20260507005105 60 218 0.0 2.6 0.00 0.00 0.00 72 1011.3
20260507004903 59 217 0.0 3.5 0.00 0.00 0.00 72 1011.3
20260507004701 60 217 0.0 3.5 0.00 0.00 0.00 72 1011.3
20260507004604 60 217 0.0 3.5 0.00 0.00 0.00 72 1011.2
20260507004508 60 211 0.0 3.5 0.00 0.00 0.00 72 1011.3
20260507004333 60 292 0.0 3.5 0.00 0.00 0.00 72 1011.2
20260507004249 60 292 0.0 3.5 0.00 0.00 0.00 72 1011.2
20260507004240 60 292 0.0 3.5 0.00 0.00 0.00 72 1011.2
20260507003806 60 229 0.9 3.5 0.00 0.00 0.00 72 1011.2
20260507003744 60 215 0.9 3.5 0.00 0.00 0.00 72 1011.1
20260507003249 60 215 0.9 4.3 0.00 0.00 0.00 72 1011.2
20260507003103 60 215 0.9 4.3 0.00 0.00 0.00 72 1011.1
20260507003046 60 215 0.9 4.3 0.00 0.00 0.00 72 1011.1
20260507002847 60 215 0.9 4.3 0.00 0.00 0.00 72 1011.1
20260507002646 60 231 0.9 4.3 0.00 0.00 0.00 72 1011.0
20260507002604 60 231 0.0 4.3 0.00 0.00 0.00 72 1011.2
20260507002447 60 232 0.0 2.6 0.00 0.00 0.00 72 1011.1
20260507002252 60 253 0.0 0.9 0.00 0.00 0.00 72 1011.1
20260507002210 60 250 0.0 0.9 0.00 0.00 0.00 72 1011.1
20260507002158 60 251 0.0 0.9 0.00 0.00 0.00 72 1011.1
20260507001641 60 259 0.0 0.9 0.00 0.00 0.00 72 1011.1
20260507001603 60 259 0.0 0.9 0.00 0.00 0.00 72 1011.1
20260507001443 60 259 0.0 6.1 0.00 0.00 0.00 73 1011.1
20260507001249 60 259 0.0 6.1 0.00 0.00 0.00 72 1011.1
20260507001208 60 259 0.9 6.1 0.00 0.00 0.00 73 1011.2
20260507001152 60 259 0.9 6.1 0.00 0.00 0.00 73 1011.2
20260507000726 60 259 0.9 6.1 0.00 0.00 0.00 73 1011.1
20260507000708 60 206 0.9 6.1 0.00 0.00 0.00 73 1011.2
20260507000632 59 205 1.7 6.1 0.00 0.00 0.00 73 1011.2
20260507000539 59 192 1.7 6.1 0.00 0.00 0.00 74 1011.3
20260507000459 59 213 1.7 6.1 0.00 0.00 0.00 74 1011.3
20260506235831 60 275 0.9 6.1 0.00 0.00 0.00 74 1011.2
20260506235437 60 236 0.9 4.3 0.00 0.00 0.00 74 1011.1
20260506235236 60 242 0.0 3.5 0.00 0.00 0.00 74 1011.1
20260506235101 60 288 0.0 3.5 0.00 0.00 0.00 73 1011.1
20260506235039 60 292 0.0 1.7 0.00 0.00 0.00 73 1011.1
20260506234835 60 292 0.0 1.7 0.00 0.00 0.00 73 1011.0
20260506234636 60 297 0.0 1.7 0.00 0.00 0.00 73 1011.0
20260506234604 60 298 0.0 1.7 0.00 0.00 0.00 73 1011.0
20260506234435 60 320 0.0 0.9 0.00 0.00 0.00 73 1011.0
20260506234235 60 321 0.0 0.0 0.00 0.00 0.00 72 1011.0
20260506234104 60 321 0.0 0.0 0.00 0.00 0.00 72 1011.0
20260506234042 60 321 0.0 0.0 0.00 0.00 0.00 73 1011.0
20260506233833 60 321 0.0 0.0 0.00 0.00 0.00 72 1011.0
20260506233634 61 321 0.0 1.7 0.00 0.00 0.00 72 1011.0
20260506233601 61 321 0.0 1.7 0.00 0.00 0.00 73 1010.9
20260506233433 61 321 0.0 1.7 0.00 0.00 0.00 73 1011.0
20260506233335 61 321 0.0 3.5 0.00 0.00 0.00 72 1011.1
20260506233258 61 221 0.0 3.5 0.00 0.00 0.00 72 1011.0
20260506233236 61 221 0.0 3.5 0.00 0.00 0.00 72 1011.0
20260506232602 61 225 0.0 3.5 0.00 0.00 0.00 72 1011.1
20260506232428 61 225 0.0 3.5 0.00 0.00 0.00 73 1011.1
20260506232225 61 235 0.0 0.9 0.00 0.00 0.00 73 1011.1
20260506232102 61 236 0.0 0.9 0.00 0.00 0.00 73 1011.0
20260506232024 61 236 0.0 0.9 0.00 0.00 0.00 73 1011.0